Flag for Saudi Arabia Weather past 2 weeks in Qatif, Saudi Arabia

Now
95 °F

Sunny.


Feels Like: 92 °F
Forecast: 75 / 94 °F
Wind: 9 mph from North

Location: King Fahd International Airport


UV Index: 7 (High)

Visibility: 10 mi


Pressure: 29.86 "Hg

Humidity: 23%

Dew point: 52 °F

Location of QatifLocation

Historic Weather in Qatif

°F

Qatif temperature yesterday

Maximum temperature yesterday: 99 °F (at 1:00 PM)
Minimum temperature yesterday: 73 °F (at 5:00 AM)
Average temperature yesterday: 87 °F

Past Weeks' High & Low Weather Summary

 TemperatureHumidityPressure
High100 °F (Apr 11, 1:00 PM)83% (Apr 3, 6:00 AM)30.12 "Hg (Apr 3, 6:00 AM)
Low55 °F (Apr 8, 5:00 AM)9% (Apr 9, 12:00 PM)29.53 "Hg (Apr 2, 6:00 PM)
Average78 °F38%29.91 "Hg
* Reported Apr 2 10:00 AM — Apr 17 10:00 AM, Qatif, Weather by CustomWeather, © 2014

Note: Actual official high and low records may vary slightly from our data, if they occured in-between our weather recording intervals... More about our weather records

Advertising

Historic Weather Conditions — Data for Previous 24 hours

 ConditionsComfort  
Time TempWeatherWind HumidityBarometerVisibility
10:00 AM
Apr 17
95 °FSunny.9 mph23%29.86 "Hg10 mi
9:00 AM88 °FSunny.8 mph31%29.86 "Hg10 mi
8:00 AM82 °FSunny.6 mph42%29.86 "Hg10 mi
7:00 AM77 °FSunny.6 mph47%29.83 "Hg10 mi
6:00 AM75 °FSunny.6 mph47%29.80 "Hg10 mi
5:00 AM73 °FClear.6 mph50%29.80 "Hg10 mi
4:00 AM75 °FClear.7 mph47%29.80 "Hg10 mi
3:00 AM79 °FClear.5 mph42%29.80 "Hg10 mi
2:00 AM79 °FClear.5 mph42%29.80 "Hg10 mi
1:00 AM79 °FPassing clouds.No wind45%29.80 "HgN/A
12:00 AM79 °FPassing clouds.5 mph39%29.83 "HgN/A
11:00 PM
Apr 16
79 °FClear.3 mph39%29.83 "Hg10 mi
10:00 PM82 °FClear.7 mph35%29.83 "Hg10 mi
9:00 PM86 °FClear.7 mph29%29.83 "Hg10 mi
8:00 PM88 °FClear.9 mph25%29.83 "Hg10 mi
7:00 PM90 °FPassing clouds.2 mph26%29.83 "HgN/A
6:00 PM91 °FPartly sunny.6 mph23%29.83 "HgN/A
5:00 PM95 °FPartly sunny.12 mph20%29.83 "HgN/A
4:00 PM97 °FSunny.14 mph18%29.80 "Hg10 mi
3:00 PM99 °FSunny.18 mph16%29.83 "Hg10 mi
2:00 PM99 °FSunny.20 mph17%29.86 "Hg10 mi
1:00 PM99 °FSunny.17 mph16%29.86 "Hg10 mi
12:00 PM97 °FSunny.15 mph22%29.89 "Hg10 mi
11:00 AM93 °FSunny.14 mph24%29.89 "Hg10 mi
Weather by CustomWeather, © 2014

See weather overview